| time (UTC) | temp C | wind direction | speed KPH | gust KPH | rain 1hr cm | rain 24hr cm | rain mn cm | humidity % | barometer mb |
| 20260504070114 | 34 | 246 | 0.0 | 0.0 | 0.00 | 0.00 | 0.00 | 54 | 976.3 |
| 20260504050502 | 31 | 350 | 1.6 | 4.8 | 0.00 | 0.00 | 0.00 | 61 | 978.6 |
| 20260504045959 | 32 | 283 | 0.0 | 1.6 | 0.00 | 0.00 | 0.00 | 62 | 978.5 |
| 20260504045455 | 32 | 69 | 4.8 | 8.0 | 0.00 | 0.00 | 0.00 | 62 | 978.6 |
| 20260504044951 | 32 | 332 | 1.6 | 1.6 | 0.00 | 0.00 | 0.00 | 62 | 978.7 |
| 20260504044449 | 32 | 153 | 3.2 | 4.8 | 0.00 | 0.00 | 0.00 | 63 | 978.6 |
| 20260504043946 | 32 | 205 | 0.0 | 1.6 | 0.00 | 0.00 | 0.00 | 65 | 978.9 |
| 20260504043443 | 31 | 221 | 0.0 | 0.0 | 0.00 | 0.00 | 0.00 | 65 | 978.9 |
| 20260504042940 | 31 | 162 | 0.0 | 3.2 | 0.00 | 0.00 | 0.00 | 66 | 978.9 |
| 20260504042436 | 31 | 42 | 3.2 | 4.8 | 0.00 | 0.00 | 0.00 | 65 | 979.1 |
| 20260504041933 | 31 | 320 | 0.0 | 3.2 | 0.00 | 0.00 | 0.00 | 66 | 979.0 |
| 20260504041429 | 30 | 169 | 0.0 | 11.3 | 0.00 | 0.00 | 0.00 | 67 | 979.1 |
| 20260504040925 | 31 | 312 | 1.6 | 1.6 | 0.00 | 0.00 | 0.00 | 67 | 978.9 |
| 20260504040424 | 31 | 260 | 0.0 | 1.6 | 0.00 | 0.00 | 0.00 | 70 | 978.9 |
| 20260504035919 | 30 | 98 | 3.2 | 4.8 | 0.00 | 0.00 | 0.00 | 70 | 979.1 |
| 20260504035417 | 30 | 77 | 4.8 | 9.7 | 0.00 | 0.00 | 0.00 | 69 | 979.1 |
| 20260504034914 | 30 | 137 | 0.0 | 0.0 | 0.00 | 0.00 | 0.00 | 71 | 979.2 |
| 20260504034412 | 30 | 358 | 0.0 | 8.0 | 0.00 | 0.00 | 0.00 | 74 | 979.2 |
| 20260504033908 | 30 | 5 | 3.2 | 4.8 | 0.00 | 0.00 | 0.00 | 71 | 979.5 |
| 20260504033406 | 29 | 94 | 1.6 | 4.8 | 0.00 | 0.00 | 0.00 | 73 | 979.5 |
| 20260504032902 | 29 | 26 | 4.8 | 8.0 | 0.00 | 0.00 | 0.00 | 72 | 979.4 |
| 20260504032359 | 29 | 47 | 1.6 | 1.6 | 0.00 | 0.00 | 0.00 | 72 | 979.3 |
| 20260504031855 | 28 | 268 | 0.0 | 3.2 | 0.00 | 0.00 | 0.00 | 73 | 979.5 |
| 20260504031353 | 29 | 37 | 1.6 | 4.8 | 0.00 | 0.00 | 0.00 | 72 | 979.5 |
| 20260504030849 | 28 | 66 | 3.2 | 8.0 | 0.00 | 0.00 | 0.00 | 73 | 979.4 |
| 20260504030347 | 30 | 80 | 0.0 | 1.6 | 0.00 | 0.00 | 0.00 | 72 | 979.6 |
| 20260504025842 | 30 | 175 | 0.0 | 0.0 | 0.00 | 0.00 | 0.00 | 73 | 979.4 |
| 20260504025340 | 29 | 212 | 0.0 | 1.6 | 0.00 | 0.00 | 0.00 | 74 | 979.6 |
| 20260504024836 | 28 | 165 | 0.0 | 9.7 | 0.00 | 0.00 | 0.00 | 74 | 979.7 |
| 20260504024333 | 29 | 204 | 0.0 | 1.6 | 0.00 | 0.00 | 0.00 | 75 | 979.7 |
| 20260504023829 | 29 | 62 | 4.8 | 4.8 | 0.00 | 0.00 | 0.00 | 72 | 979.8 |
| 20260504023326 | 29 | 155 | 0.0 | 3.2 | 0.00 | 0.00 | 0.00 | 74 | 979.6 |
| 20260504022822 | 29 | 183 | 0.0 | 1.6 | 0.00 | 0.00 | 0.00 | 74 | 979.8 |
| 20260504022319 | 29 | 210 | 0.0 | 0.0 | 0.00 | 0.00 | 0.00 | 76 | 979.5 |
| 20260504021816 | 28 | 328 | 1.6 | 3.2 | 0.00 | 0.00 | 0.00 | 75 | 979.4 |
| 20260504021314 | 28 | 222 | 0.0 | 0.0 | 0.00 | 0.00 | 0.00 | 77 | 979.4 |
| 20260504020810 | 27 | 92 | 1.6 | 3.2 | 0.00 | 0.00 | 0.00 | 79 | 979.6 |
| 20260504020307 | 27 | 23 | 0.0 | 0.0 | 0.00 | 0.00 | 0.00 | 81 | 979.3 |
| 20260504015802 | 27 | 258 | 0.0 | 1.6 | 0.00 | 0.00 | 0.00 | 80 | 979.5 |
| 20260504015259 | 27 | 311 | 0.0 | 1.6 | 0.00 | 0.00 | 0.00 | 79 | 979.5 |
| 20260504014755 | 27 | 258 | 1.6 | 1.6 | 0.00 | 0.00 | 0.00 | 80 | 979.3 |
| 20260504014251 | 26 | 251 | 0.0 | 0.0 | 0.00 | 0.00 | 0.00 | 82 | 979.1 |
| 20260504013749 | 26 | 254 | 0.0 | 0.0 | 0.00 | 0.00 | 0.00 | 80 | 979.1 |
| 20260504013247 | 27 | 268 | 1.6 | 1.6 | 0.00 | 0.00 | 0.00 | 82 | 978.9 |
| 20260504012743 | 26 | 297 | 0.0 | 0.0 | 0.00 | 0.00 | 0.00 | 85 | 978.8 |
| 20260504012241 | 26 | 300 | 0.0 | 1.6 | 0.00 | 0.00 | 0.00 | 84 | 979.0 |
| 20260504011737 | 26 | 219 | 0.0 | 1.6 | 0.00 | 0.00 | 0.00 | 84 | 979.1 |
| 20260504011235 | 26 | 150 | 0.0 | 0.0 | 0.00 | 0.00 | 0.00 | 83 | 979.1 |
| 20260504010731 | 25 | 144 | 0.0 | 0.0 | 0.00 | 0.00 | 0.00 | 86 | 979.0 |
| 20260504010226 | 25 | 227 | 0.0 | 0.0 | 0.00 | 0.00 | 0.00 | 89 | 979.1 |
| 20260504005723 | 24 | 225 | 0.0 | 1.6 | 0.00 | 0.00 | 0.00 | 90 | 978.8 |
| 20260504005220 | 23 | 217 | 1.6 | 1.6 | 0.00 | 0.00 | 0.00 | 93 | 978.7 |
| 20260504004718 | 23 | 219 | 0.0 | 1.6 | 0.00 | 0.00 | 0.00 | 92 | 978.7 |
| 20260504004215 | 23 | 211 | 0.0 | 0.0 | 0.00 | 0.00 | 0.00 | 94 | 978.6 |
| 20260504003712 | 22 | 219 | 0.0 | 0.0 | 0.00 | 0.00 | 0.00 | 94 | 978.6 |
| 20260504003208 | 22 | 219 | 0.0 | 0.0 | 0.00 | 0.00 | 0.00 | 94 | 978.6 |
| 20260504002705 | 22 | 219 | 0.0 | 0.0 | 0.00 | 0.00 | 0.00 | 95 | 978.5 |
| 20260504002202 | 22 | 219 | 0.0 | 0.0 | 0.00 | 0.00 | 0.00 | 95 | 978.3 |
| 20260504001700 | 22 | 219 | 0.0 | 0.0 | 0.00 | 0.00 | 0.00 | 96 | 978.2 |
| 20260504001157 | 22 | 219 | 0.0 | 0.0 | 0.00 | 0.00 | 0.00 | 97 | 978.4 |
| 20260504000653 | 21 | 219 | 0.0 | 0.0 | 0.00 | 0.00 | 0.00 | 98 | 978.4 |
| 20260504000151 | 21 | 212 | 0.0 | 0.0 | 0.00 | 0.00 | 0.00 | 98 | 978.1 |
| 20260503235649 | 21 | 212 | 0.0 | 0.0 | 0.00 | 0.00 | 0.00 | 99 | 978.1 |
| 20260503235145 | 21 | 212 | 0.0 | 0.0 | 0.00 | 0.00 | 0.00 | 99 | 978.3 |
| 20260503234643 | 21 | 212 | 0.0 | 0.0 | 0.00 | 0.00 | 0.00 | 99 | 978.4 |
| 20260503234141 | 21 | 212 | 0.0 | 0.0 | 0.00 | 0.00 | 0.00 | 99 | 978.2 |
| 20260503233638 | 21 | 213 | 0.0 | 0.0 | 0.00 | 0.00 | 0.00 | 99 | 978.0 |
| 20260503233133 | 21 | 213 | 0.0 | 0.0 | 0.00 | 0.00 | 0.00 | 99 | 978.0 |
| 20260503232630 | 21 | 213 | 0.0 | 0.0 | 0.00 | 0.00 | 0.00 | 99 | 978.0 |
| 20260503232128 | 21 | 213 | 0.0 | 0.0 | 0.00 | 0.00 | 0.00 | 99 | 978.1 |
| 20260503231626 | 21 | 213 | 0.0 | 0.0 | 0.00 | 0.00 | 0.00 | 99 | 978.1 |
| 20260503231122 | 20 | 213 | 0.0 | 0.0 | 0.00 | 0.00 | 0.00 | 99 | 977.9 |
| 20260503230619 | 20 | 213 | 0.0 | 0.0 | 0.00 | 0.00 | 0.00 | 99 | 977.9 |
| 20260503230116 | 20 | 213 | 0.0 | 0.0 | 0.00 | 0.00 | 0.00 | 99 | 977.8 |
| 20260503225614 | 20 | 213 | 0.0 | 0.0 | 0.00 | 0.00 | 0.00 | 99 | 977.7 |
| 20260503225113 | 20 | 213 | 0.0 | 0.0 | 0.00 | 0.00 | 0.00 | 99 | 977.8 |
| 20260503224611 | 20 | 213 | 0.0 | 0.0 | 0.00 | 0.00 | 0.00 | 99 | 977.8 |
| 20260503224109 | 20 | 213 | 0.0 | 0.0 | 0.00 | 0.00 | 0.00 | 99 | 977.8 |
| 20260503223607 | 20 | 213 | 0.0 | 0.0 | 0.00 | 0.00 | 0.00 | 99 | 977.5 |
| 20260503223102 | 20 | 213 | 0.0 | 0.0 | 0.00 | 0.00 | 0.00 | 99 | 977.3 |
| 20260503222600 | 20 | 213 | 0.0 | 0.0 | 0.00 | 0.00 | 0.00 | 99 | 977.3 |
| 20260503222058 | 20 | 213 | 0.0 | 0.0 | 0.00 | 0.00 | 0.00 | 99 | 977.2 |
| 20260503221556 | 20 | 214 | 0.0 | 0.0 | 0.00 | 0.00 | 0.00 | 99 | 977.6 |
| 20260503221053 | 20 | 211 | 0.0 | 0.0 | 0.00 | 0.00 | 0.00 | 99 | 977.3 |
| 20260503220549 | 20 | 203 | 0.0 | 0.0 | 0.00 | 0.00 | 0.00 | 99 | 976.9 |
| 20260503220047 | 20 | 193 | 0.0 | 0.0 | 0.00 | 0.00 | 0.00 | 99 | 977.1 |
| 20260503215543 | 20 | 196 | 0.0 | 0.0 | 0.00 | 0.00 | 0.00 | 99 | 976.8 |
| 20260503215040 | 20 | 280 | 0.0 | 0.0 | 0.00 | 0.00 | 0.00 | 99 | 976.9 |
| 20260503214538 | 20 | 242 | 0.0 | 0.0 | 0.00 | 0.00 | 0.00 | 99 | 976.6 |
| 20260503214035 | 20 | 242 | 0.0 | 0.0 | 0.00 | 0.00 | 0.00 | 99 | 976.6 |
| 20260503213533 | 20 | 247 | 0.0 | 0.0 | 0.00 | 0.00 | 0.00 | 99 | 976.4 |
| 20260503213030 | 20 | 257 | 0.0 | 0.0 | 0.00 | 0.00 | 0.00 | 99 | 976.5 |
| 20260503212527 | 20 | 234 | 0.0 | 0.0 | 0.00 | 0.00 | 0.00 | 99 | 976.5 |
| 20260503212025 | 20 | 252 | 0.0 | 0.0 | 0.00 | 0.00 | 0.00 | 99 | 976.7 |
| 20260503211521 | 21 | 233 | 0.0 | 0.0 | 0.00 | 0.00 | 0.00 | 99 | 976.4 |
| 20260503211016 | 21 | 233 | 0.0 | 0.0 | 0.00 | 0.00 | 0.00 | 99 | 976.2 |
| 20260503210514 | 21 | 234 | 0.0 | 0.0 | 0.00 | 0.00 | 0.00 | 99 | 976.5 |
| 20260503210010 | 21 | 234 | 0.0 | 0.0 | 0.00 | 0.00 | 0.00 | 99 | 976.4 |
| 20260503205506 | 21 | 233 | 0.0 | 0.0 | 0.00 | 0.00 | 0.00 | 99 | 976.6 |
| 20260503205002 | 21 | 234 | 0.0 | 0.0 | 0.00 | 0.00 | 0.00 | 99 | 976.5 |
| 20260503204500 | 21 | 231 | 0.0 | 0.0 | 0.00 | 0.00 | 0.00 | 99 | 976.3 |
| 20260503203956 | 21 | 229 | 0.0 | 0.0 | 0.00 | 0.00 | 0.00 | 99 | 976.2 |
| 20260503203454 | 21 | 229 | 0.0 | 0.0 | 0.00 | 0.00 | 0.00 | 99 | 976.4 |
| 20260503202950 | 21 | 242 | 0.0 | 0.0 | 0.00 | 0.00 | 0.00 | 99 | 976.5 |
| 20260503202449 | 21 | 259 | 0.0 | 0.0 | 0.00 | 0.00 | 0.00 | 99 | 976.2 |
| 20260503201947 | 21 | 229 | 0.0 | 0.0 | 0.00 | 0.00 | 0.00 | 99 | 976.2 |
| 20260503201444 | 21 | 225 | 0.0 | 0.0 | 0.00 | 0.00 | 0.00 | 99 | 976.3 |
| 20260503200941 | 21 | 225 | 0.0 | 0.0 | 0.00 | 0.00 | 0.00 | 99 | 976.4 |
| 20260503200438 | 21 | 228 | 0.0 | 0.0 | 0.00 | 0.00 | 0.00 | 99 | 976.3 |
| 20260503195934 | 21 | 221 | 0.0 | 0.0 | 0.00 | 0.00 | 0.00 | 99 | 976.4 |
| 20260503195432 | 21 | 221 | 0.0 | 0.0 | 0.00 | 0.00 | 0.00 | 99 | 976.3 |
| 20260503194928 | 21 | 221 | 0.0 | 0.0 | 0.00 | 0.00 | 0.00 | 99 | 976.5 |
| 20260503194425 | 21 | 221 | 0.0 | 0.0 | 0.00 | 0.00 | 0.00 | 99 | 976.6 |
| 20260503193920 | 21 | 221 | 0.0 | 0.0 | 0.00 | 0.00 | 0.00 | 99 | 976.7 |
| 20260503193416 | 21 | 221 | 0.0 | 0.0 | 0.00 | 0.00 | 0.00 | 99 | 976.3 |
| 20260503192912 | 21 | 221 | 0.0 | 0.0 | 0.00 | 0.00 | 0.00 | 99 | 976.2 |
| 20260503192409 | 21 | 231 | 0.0 | 0.0 | 0.00 | 0.00 | 0.00 | 99 | 976.5 |
| 20260503191904 | 21 | 221 | 0.0 | 0.0 | 0.00 | 0.00 | 0.00 | 99 | 976.7 |
| 20260503191402 | 21 | 221 | 0.0 | 0.0 | 0.00 | 0.00 | 0.00 | 99 | 976.4 |
| 20260503190858 | 21 | 221 | 0.0 | 0.0 | 0.00 | 0.00 | 0.00 | 99 | 976.6 |
| 20260503190355 | 21 | 221 | 0.0 | 0.0 | 0.00 | 0.00 | 0.00 | 99 | 976.5 |
| 20260503185852 | 21 | 221 | 0.0 | 0.0 | 0.00 | 0.00 | 0.00 | 99 | 976.4 |
| 20260503185349 | 21 | 223 | 0.0 | 0.0 | 0.00 | 0.00 | 0.00 | 99 | 976.7 |
| 20260503184848 | 21 | 221 | 0.0 | 0.0 | 0.00 | 0.00 | 0.00 | 99 | 976.5 |
| 20260503184345 | 21 | 221 | 0.0 | 0.0 | 0.00 | 0.00 | 0.00 | 99 | 976.8 |
| 20260503183840 | 21 | 221 | 0.0 | 0.0 | 0.00 | 0.00 | 0.00 | 99 | 976.8 |
| 20260503183338 | 21 | 221 | 0.0 | 0.0 | 0.00 | 0.00 | 0.00 | 99 | 976.7 |
| 20260503182835 | 21 | 221 | 0.0 | 0.0 | 0.00 | 0.00 | 0.00 | 99 | 976.8 |
| 20260503182334 | 21 | 221 | 0.0 | 0.0 | 0.00 | 0.00 | 0.00 | 99 | 976.9 |
| 20260503181831 | 21 | 221 | 0.0 | 0.0 | 0.00 | 0.00 | 0.00 | 99 | 976.7 |
| 20260503181328 | 21 | 221 | 0.0 | 0.0 | 0.00 | 0.00 | 0.00 | 99 | 976.8 |
| 20260503180824 | 21 | 221 | 0.0 | 0.0 | 0.00 | 0.00 | 0.00 | 99 | 977.0 |
| 20260503180323 | 21 | 221 | 0.0 | 0.0 | 0.00 | 0.00 | 0.00 | 99 | 976.8 |
| 20260503175818 | 21 | 221 | 0.0 | 0.0 | 0.00 | 0.00 | 0.00 | 99 | 976.9 |
| 20260503175317 | 22 | 221 | 0.0 | 0.0 | 0.00 | 0.00 | 0.00 | 99 | 977.0 |
| 20260503174812 | 22 | 221 | 0.0 | 0.0 | 0.00 | 0.00 | 0.00 | 99 | 977.1 |
| 20260503174311 | 22 | 221 | 0.0 | 0.0 | 0.00 | 0.00 | 0.00 | 99 | 977.0 |
| 20260503173806 | 22 | 221 | 0.0 | 0.0 | 0.00 | 0.00 | 0.00 | 99 | 977.0 |
| 20260503173302 | 22 | 221 | 0.0 | 0.0 | 0.00 | 0.00 | 0.00 | 98 | 976.9 |
| 20260503172759 | 22 | 221 | 0.0 | 0.0 | 0.00 | 0.00 | 0.00 | 98 | 976.9 |
| 20260503172256 | 22 | 216 | 0.0 | 0.0 | 0.00 | 0.00 | 0.00 | 98 | 977.0 |
| 20260503171752 | 22 | 215 | 0.0 | 0.0 | 0.00 | 0.00 | 0.00 | 98 | 977.1 |
| 20260503171249 | 22 | 215 | 0.0 | 0.0 | 0.00 | 0.00 | 0.00 | 98 | 976.9 |
| 20260503170746 | 22 | 215 | 0.0 | 0.0 | 0.00 | 0.00 | 0.00 | 98 | 976.9 |
| 20260503170243 | 22 | 214 | 0.0 | 0.0 | 0.00 | 0.00 | 0.00 | 98 | 977.0 |
| 20260503160205 | 22 | 243 | 0.0 | 0.0 | 0.00 | 0.30 | 0.30 | 97 | 977.2 |
| 20260503150635 | 22 | 136 | 0.0 | 0.0 | 0.00 | 0.30 | 0.30 | 96 | 976.9 |
| 20260503150131 | 22 | 233 | 0.0 | 0.0 | 0.00 | 0.30 | 0.30 | 96 | 976.6 |
| 20260503131025 | 23 | 232 | 0.0 | 0.0 | 0.00 | 0.30 | 0.30 | 96 | 974.8 |
| 20260503130522 | 23 | 239 | 0.0 | 1.6 | 0.00 | 0.30 | 0.30 | 96 | 974.9 |
| 20260503110413 | 23 | 224 | 0.0 | 0.0 | 0.00 | 0.30 | 0.30 | 94 | 973.3 |
| 20260503090304 | 35 | 225 | 0.0 | 0.0 | 0.00 | 0.00 | 0.00 | 52 | 972.5 |
| 20260503081231 | 32 | 220 | 0.0 | 0.0 | 0.00 | 0.00 | 0.00 | 57 | 973.3 |
| 20260503080726 | 32 | 220 | 0.0 | 0.0 | 0.00 | 0.00 | 0.00 | 59 | 973.1 |
| 20260503080224 | 32 | 220 | 0.0 | 0.0 | 0.00 | 0.00 | 0.00 | 58 | 973.4 |
| 20260503072700 | 33 | 224 | 0.0 | 0.0 | 0.00 | 0.00 | 0.00 | 58 | 973.9 |
| 20260503072157 | 33 | 203 | 0.0 | 0.0 | 0.00 | 0.00 | 0.00 | 53 | 974.0 |
| 20260503071654 | 35 | 203 | 0.0 | 0.0 | 0.00 | 0.00 | 0.00 | 51 | 973.9 |